|
OPAL - Orbit
|
Innerarity Island Observatory;
10:42:22
| Home | Info | Passes |
|
View from above orbital plane
|
View from above satellite
|
Ground track
|
The orbit data is extracted from the following two-line orbital elements,
1 26063U 00004C 13140.20415604 .00000140 00000-0 67687-4 0 6880
2 26063 100.1934 209.9702 0036927 184.8047 253.6297 14.36182447697618
| Epoch (UTC): | 20 May 2013 04:53:59 |
| Eccentricity: | 0.0036927 |
| inclination: | 100.1934° |
| perigee height: | 745 km |
| apogee height: | 797 km |
| right ascension of ascending node: | 209.9702° |
| argument of perigee: | 184.8047° |
| revolutions per day: | 14.36182447 |
| mean anomaly at epoch: | 253.6297° |
| orbit number at epoch: | 69761 |
The dashed part of the orbit path shows where the satellite is in the earth's shadow,
|
|